Location: Fatehalanka
(16.3139°N, 80.8379°E)
Time: 07:25:38
(UTC+00:00)

Terra - Pass Details

Date: 14 May 2026
Orbit: 689 x 690 km, 97.9° (Epoch: 5 June)

Event Time Altitude Azimuth Distance (km) Brightness Sun altitude
Exits shadow 14:10:44 11° 60° (ENE) 2,096 3.9 -16.6°
Drops below altitude 10° 14:11:07 10° 55° (NE) 2,135 4.0 -16.7°
Sets 14:15:03 0° 22° (NNE) 3,052 5.2 -17.5°
